This demonstration page uses our WeatherBlox Daily Observations layout. Learn more.

Left ArrowRight Arrow

38.83388, -104.82136

Hourly Observations for October 1, 2022

Temp ( °F °C ) Dew Point ( °F °C ) Humidity (%) Winds ( mph kmh ) Pressure ( in mb ) Visibility ( mi km ) Precip ( " mm )
12:56 am 00:56 Mostly Cloudy 55 12.7 44 6.7 67 67 N 10 17 28.93 980 10 16 0.00 0.00
1:56 am 01:56 Partly Cloudy 58 14.6 41 4.9 52 52 NNW 6 9 28.91 979 10 16 0.00 0.00
2:56 am 02:56 Mostly Cloudy 56 13.3 41 5 57 57 WNW 7 11 28.92 979 10 16 0.00 0.00
3:56 am 03:56 Mostly Cloudy 55 12.9 41 5.1 59 59 WNW 5 7 28.91 979 10 16 0.00 0.00
4:56 am 04:56 Cloudy 55 12.8 41 5.2 60 60 WNW 3 6 28.93 980 10 16 0.00 0.00
5:56 am 05:56 Mostly Cloudy 54 12.2 42 5.4 63 63 Calm 28.96 981 10 16 0.00 0.00
6:56 am 06:56 Sunny 54 12.1 42 5.3 63 63 SW 3 6 28.99 982 10 16 0.00 0.00
7:56 am 07:56 Cloudy 56 13.5 42 5.4 58 58 SSE 9 15 29.02 983 10 16 0.00 0.00
8:56 am 08:56 Cloudy 56 13.6 43 6 60 60 SE 7 11 29.04 983 10 16 0.00 0.00
9:56 am 09:56 Cloudy 57 14 44 6.4 60 60 ESE 3 6 29.06 984 10 16 0.00 0.00
10:56 am 10:56 Mostly Cloudy 63 17.2 44 6.4 49 49 SE 6 9 29.11 986 10 16 0.00 0.00
11:56 am 11:56 Sunny 68 19.8 44 6.5 42 42 SE 13 20 29.22 989 10 16 0.00 0.00
12:56 pm 12:56 Sunny 67 19.7 44 6.4 42 42 SE 14 22 29.22 989 10 16 0.00 0.00
1:56 pm 13:56 Mostly Cloudy 66 18.9 42 5.4 41 41 SE 15 24 29.16 987 10 16 0.00 0.00
2:56 pm 14:56 Partly Cloudy 68 20.2 42 5.8 39 39 SSE 10 17 29.20 989 10 16 0.00 0.00
3:09 pm 15:09 Partly Cloudy 68 20 43 6 40 40 ESE 14 22 29.16 987 10 16 0.00 0.00
3:56 pm 15:56 Partly Cloudy 68 20 41 5.2 38 38 S 12 19 29.18 988 10 16 0.00 0.00
4:56 pm 16:56 Cloudy with Nearby Thunderstorms 65 18.5 40 4.6 40 40 SSE 10 17 29.06 984 10 16 0.00 0.00
5:04 pm 17:04 Cloudy with Thunderstorms 64 18 41 5 42 42 SSE 13 20 29.08 985 10 16 0.00 0.00
5:19 pm 17:19 Cloudy with Nearby Thunderstorms 64 18 41 5 42 42 SSE 12 19 29.08 985 10 16 0.00 0.00
5:41 pm 17:41 Cloudy with Light Rain 64 18 41 5 42 42 SSE 9 15 29.08 985 10 16 0.00 0.00
5:52 pm 17:52 Cloudy with Light Rain 61 16 45 7 55 55 SW 12 19 29.04 984 10 16 0.00 0.00
5:56 pm 17:56 Cloudy with Light Rain 60 15.4 45 7.2 58 58 WSW 13 20 29.03 983 10 16 0.01 0.13
5:59 pm 17:59 Cloudy with Light Rain 59 15 45 7 59 59 W 17 28 29.04 984 10 16 0.00 0.00
6:02 pm 18:02 Cloudy with Light Rain 57 14 45 7 63 63 WSW 13 20 29.05 984 10 16 0.00 0.00
6:10 pm 18:10 Cloudy with Rain 55 13 45 7 67 67 W 18 30 29.06 984 10 16 0.00 0.00
6:56 pm 18:56 Cloudy with Light Rain 58 14.3 44 6.9 61 61 W 13 20 29.21 989 10 16 0.10 2.54
7:07 pm 19:07 Mostly Cloudy 57 14 45 7 63 63 W 7 11 29.21 989 10 16 0.00 0.00
7:21 pm 19:21 Cloudy with Light Rain 59 15 43 6 55 55 WSW 8 13 29.20 989 10 16 0.00 0.00
7:34 pm 19:34 Cloudy 59 15 43 6 55 55 SW 7 11 29.17 988 10 16 0.00 0.00
7:56 pm 19:56 Cloudy 57 14 45 7.1 63 63 Calm 29.15 987 10 16 0.01 0.13
8:07 pm 20:07 Cloudy with Light Rain 57 14 46 8 67 67 W 3 6 29.14 987 10 16 0.00 0.00
8:56 pm 20:56 Cloudy with Light Rain 58 14.7 44 6.5 58 58 Calm 29.10 986 10 16 0.01 0.25
9:07 pm 21:07 Cloudy 59 15 45 7 59 59 Calm 29.10 986 10 16 0.00 0.00
9:56 pm 21:56 Cloudy 58 14.6 43 5.9 56 56 Calm 29.10 985 10 16 0.01 0.13
10:56 pm 22:56 Cloudy 57 13.7 43 6.3 61 61 SW 3 6 29.07 985 10 16 0.00 0.00
11:56 pm 23:56 Mostly Cloudy 57 13.8 42 5.7 58 58 Calm 29.03 983 10 16 0.00 0.00

Powered by AerisWeather